Location: Bukovany
(49.8234°N, 14.6297°E)
Time: 16:29:56
(UTC+00:00)

ATLAS 2AS CENTAUR R/B - Pass Details

Date: 17 November 2025
Orbit: 1047 x 1163 km, 63.7° (Epoch: 09 December)

Event Time Altitude Azimuth Distance (km) Brightness Sun altitude
Rises 16:25:02 0° 308° (NW) 3,871 6.2 -11.2°
Reaches altitude 10° 16:28:04 10° 319° (NW) 2,899 5.3 -11.6°
Maximum altitude 16:34:02 31° 20° (NNE) 1,761 3.6 -12.6°
Enters shadow 16:38:09 17° 70° (ENE) 2,359 3.9 -13.2°
